{"data":{"norad_id":53877,"intl_designator":"2022-115A","name":"YUNHAI-1 03","alt_names":[],"object_type":"PAYLOAD","status":"ACTIVE","operator":null,"country":"PRC","launch_date":"2022-09-20","launch_site_code":"JSC","launch_vehicle":null,"mission":null,"orbit_class":"UNKNOWN","rcs_meters":null,"size_class":null,"mass_kg":null,"dimensions":null,"purposes":[],"wikipedia_slug":null,"has_3d_model":false,"image_url":null,"decayed_at":null,"tle_current":{"epoch":"2026-09-20T22:31:38.528832Z","epoch_age_seconds":114691,"freshness":"FRESH","line1":"1 53877U 22115A   26263.93864038  .00000230  00000+0  10105-3 0  9995","line2":"2 53877  98.5609 260.8898 0005486 110.8285 249.3487 14.32546858209226","mean_motion":14.32546858,"eccentricity":0.0005486,"inclination_deg":98.5609,"raan_deg":260.8898,"arg_perigee_deg":110.8285,"mean_anomaly_deg":249.3487,"bstar":0.00010105,"rev_number":20922,"period_min":100.52027212641,"perigee_km":779.30159835442,"apogee_km":787.15905058283,"semimajor_km":7161.3673244686,"source":"CELESTRAK","updated_at":"2026-09-21T09:00:09.239489Z"}}}